{"data":{"norad_id":59943,"epoch":"2026-09-20T19:46:01.411680Z","epoch_age_seconds":149642,"freshness":"FRESH","line1":"1 59943U 24106X   26263.82362745 -.00000118  00000+0  52310-5 0  9995","line2":"2 59943  43.0022 310.7173 0001106 274.2865  85.7860 15.27575767130366","mean_motion":15.27575767,"eccentricity":0.0001106,"inclination_deg":43.0022,"raan_deg":310.7173,"arg_perigee_deg":274.2865,"mean_anomaly_deg":85.786,"bstar":5.231e-6,"rev_number":13036,"period_min":94.267009932215,"perigee_km":482.30292260964,"apogee_km":483.82061977783,"semimajor_km":6861.1987711937,"source":"CELESTRAK","updated_at":"2026-09-22T09:00:49.115204Z"}}